When you browse on this site, cookies collect data to enhance your experience and personalize the content and advertising you see.
Visit our Privacy Policy to learn more. By continuing to use the site, you agree to this use of cookies and data.
  • In Latvia
  • List of Countries
  • For 7 days
  • Water Temperature
  • Weather Map
  • Weather Widgets
  • user-avatar
    Login

    Hourly Weather La Chaux-de-Fonds

    Today, 6 December, Friday

    Time Temperature Precipitation Wind Pressure Humidity
    00:00 -2°C° 0 mm 2 mps 680 mmHg 55%
    01:00 -2°C° 0 mm 2 mps 680 mmHg 57%
    02:00 -2°C° 0 mm 2 mps 680 mmHg 60%
    03:00 -2°C° 0 mm 2 mps 679 mmHg 62%
    04:00 -2°C° 0 mm 2 mps 679 mmHg 62%
    05:00 -2°C° 0 mm 2 mps 679 mmHg 62%
    06:00 -2°C° 0 mm 2 mps 680 mmHg 59%
    07:00 -1°C° 0 mm 2 mps 680 mmHg 57%
    08:00 +1°C° 0 mm 2 mps 680 mmHg 55%
    09:00 +2°C° 0 mm 2 mps 680 mmHg 53%
    10:00 +3°C° 0 mm 3 mps 680 mmHg 54%
    11:00 +4°C° 0 mm 3 mps 680 mmHg 55%
    12:00 +5°C° 0 mm 3 mps 680 mmHg 56%
    13:00 +4°C° 0 mm 3 mps 679 mmHg 59%
    14:00 +3°C° 0 mm 3 mps 678 mmHg 63%
    15:00 +2°C° 0 mm 3 mps 678 mmHg 66%
    16:00 +2°C° 0 mm 3 mps 678 mmHg 67%
    17:00 +1°C° 0 mm 3 mps 678 mmHg 67%
    18:00 +1°C° 0 mm 3 mps 678 mmHg 67%
    19:00 0°C° 0 mm 4 mps 678 mmHg 69%
    20:00 +1°C° 0 mm 4 mps 678 mmHg 72%
    21:00 +1°C° 0 mm 4 mps 678 mmHg 74%
    22:00 +1°C° 0.3 mm 4 mps 678 mmHg 78%
    23:00 +1°C° 0.3 mm 4 mps 678 mmHg 81%

    Tomorrow, 7 December, Saturday

    Time Temperature Precipitation Wind Pressure Humidity
    00:00 +3°C° 0.3 mm 4 mps 679 mmHg 85%
    01:00 +2°C° 0.2 mm 5 mps 678 mmHg 86%
    02:00 +2°C° 0.2 mm 5 mps 678 mmHg 87%
    03:00 +2°C° 0.2 mm 5 mps 678 mmHg 88%
    04:00 +1°C° 0.2 mm 4 mps 678 mmHg 89%
    05:00 +1°C° 0.2 mm 4 mps 679 mmHg 90%
    06:00 +1°C° 0.2 mm 4 mps 679 mmHg 91%
    07:00 +2°C° 0.1 mm 3 mps 679 mmHg 91%
    08:00 +2°C° 0.1 mm 3 mps 679 mmHg 91%
    09:00 +3°C° 0.1 mm 3 mps 679 mmHg 91%
    10:00 +3°C° 0.1 mm 3 mps 679 mmHg 89%
    11:00 +4°C° 0.1 mm 3 mps 679 mmHg 88%
    12:00 +4°C° 0.1 mm 3 mps 679 mmHg 86%
    13:00 +4°C° 0.1 mm 3 mps 679 mmHg 87%
    14:00 +5°C° 0.1 mm 2 mps 679 mmHg 89%
    15:00 +4°C° 0.1 mm 2 mps 679 mmHg 90%
    16:00 +4°C° 0 mm 2 mps 679 mmHg 91%
    17:00 +3°C° 0 mm 2 mps 679 mmHg 92%
    18:00 +3°C° 0 mm 2 mps 680 mmHg 92%
    19:00 +2°C° 0 mm 2 mps 680 mmHg 92%
    20:00 +2°C° 0 mm 2 mps 679 mmHg 91%
    21:00 +2°C° 0 mm 2 mps 679 mmHg 91%
    22:00 +2°C° 0 mm 2 mps 679 mmHg 91%
    23:00 +1°C° 0 mm 2 mps 679 mmHg 90%

    Day after tomorrow, 8 December, Sunday

    Time Temperature Precipitation Wind Pressure Humidity
    00:00 +1°C° 0 mm 2 mps 679 mmHg 90%
    01:00 +1°C° 0 mm 2 mps 678 mmHg 90%
    02:00 +1°C° 0 mm 2 mps 678 mmHg 91%
    03:00 0°C° 0 mm 3 mps 678 mmHg 92%
    04:00 +1°C° 0 mm 3 mps 678 mmHg 92%
    05:00 +1°C° 0 mm 3 mps 678 mmHg 92%
    06:00 +1°C° 0 mm 3 mps 678 mmHg 92%
    07:00 +1°C° 0 mm 4 mps 678 mmHg 90%
    08:00 +1°C° 0 mm 4 mps 678 mmHg 88%
    09:00 +2°C° 0 mm 5 mps 677 mmHg 87%
    10:00 +3°C° 0 mm 5 mps 677 mmHg 84%
    11:00 +5°C° 0 mm 5 mps 677 mmHg 82%
    12:00 +4°C° 0 mm 6 mps 676 mmHg 80%
    13:00 +4°C° 0.8 mm 6 mps 676 mmHg 83%
    14:00 +4°C° 0.8 mm 6 mps 675 mmHg 86%
    15:00 +3°C° 0.8 mm 6 mps 675 mmHg 89%
    16:00 +3°C° 0.8 mm 6 mps 675 mmHg 89%
    17:00 +3°C° 0.8 mm 6 mps 675 mmHg 90%
    18:00 +4°C° 0.8 mm 6 mps 675 mmHg 90%
    19:00 +4°C° 0.1 mm 6 mps 675 mmHg 90%
    20:00 +4°C° 0.1 mm 6 mps 675 mmHg 90%
    21:00 +4°C° 0.1 mm 6 mps 674 mmHg 89%
    22:00 +3°C° 0.4 mm 7 mps 674 mmHg 89%
    23:00 +3°C° 0.4 mm 7 mps 674 mmHg 90%

    9 December, Monday

    Time Temperature Precipitation Wind Pressure Humidity
    00:00 +1°C° 0.4 mm 8 mps 673 mmHg 90%
    01:00 0°C° 0.6 mm 8 mps 673 mmHg 90%
    02:00 0°C° 0.6 mm 8 mps 673 mmHg 90%
    03:00 -1°C° 0.6 mm 7 mps 673 mmHg 91%
    04:00 -1°C° 0.5 mm 7 mps 672 mmHg 91%
    05:00 -2°C° 0.5 mm 7 mps 672 mmHg 91%
    06:00 -2°C° 0.5 mm 7 mps 672 mmHg 91%
    07:00 -2°C° 0.5 mm 7 mps 672 mmHg 92%
    08:00 -2°C° 0.5 mm 7 mps 671 mmHg 93%
    09:00 -2°C° 0.5 mm 8 mps 671 mmHg 94%
    10:00 -2°C° 1.1 mm 8 mps 670 mmHg 94%
    11:00 -2°C° 1.1 mm 8 mps 669 mmHg 95%
    12:00 -2°C° 1.1 mm 8 mps 669 mmHg 95%
    13:00 -2°C° 2.2 mm 8 mps 669 mmHg 95%
    14:00 -2°C° 2.2 mm 7 mps 669 mmHg 96%
    15:00 -2°C° 2.2 mm 7 mps 669 mmHg 96%
    16:00 -2°C° 0.8 mm 6 mps 670 mmHg 96%
    17:00 -2°C° 0.8 mm 6 mps 671 mmHg 95%
    18:00 -1°C° 0.8 mm 5 mps 672 mmHg 95%
    19:00 -2°C° 0.9 mm 6 mps 673 mmHg 94%
    20:00 -2°C° 0.9 mm 6 mps 673 mmHg 94%
    21:00 -3°C° 0.9 mm 6 mps 674 mmHg 94%
    22:00 -2°C° 0.6 mm 5 mps 675 mmHg 95%
    23:00 -2°C° 0.6 mm 5 mps 675 mmHg 95%

    10 December, Tuesday

    Time Temperature Precipitation Wind Pressure Humidity
    00:00 -4°C° 0.6 mm 5 mps 676 mmHg 96%
    01:00 -4°C° 0.7 mm 5 mps 677 mmHg 96%
    02:00 -3°C° 0.7 mm 4 mps 678 mmHg 95%
    03:00 -3°C° 0.7 mm 4 mps 679 mmHg 95%
    04:00 -4°C° 0.2 mm 3 mps 679 mmHg 95%
    05:00 -4°C° 0.2 mm 2 mps 680 mmHg 95%
    06:00 -2°C° 0.2 mm 1 mps 681 mmHg 95%
    07:00 -2°C° 0.1 mm 1 mps 681 mmHg 94%
    08:00 -1°C° 0.1 mm 1 mps 682 mmHg 92%
    09:00 -1°C° 0.1 mm 1 mps 683 mmHg 91%
    10:00 0°C° 0 mm 1 mps 683 mmHg 88%
    11:00 0°C° 0 mm 1 mps 682 mmHg 84%
    12:00 +1°C° 0 mm 1 mps 682 mmHg 80%
    13:00 0°C° 0 mm 1 mps 682 mmHg 82%
    14:00 0°C° 0 mm 1 mps 681 mmHg 84%
    15:00 -2°C° 0 mm 0 mps 680 mmHg 86%
    16:00 -3°C° 0 mm 0 mps 680 mmHg 87%
    17:00 -3°C° 0 mm 1 mps 679 mmHg 87%
    18:00 -4°C° 0 mm 1 mps 679 mmHg 88%
    19:00 -4°C° 0 mm 1 mps 678 mmHg 88%
    20:00 -3°C° 0 mm 1 mps 678 mmHg 87%
    21:00 -3°C° 0 mm 1 mps 678 mmHg 87%
    22:00 -2°C° 0 mm 1 mps 677 mmHg 85%
    23:00 -2°C° 0 mm 1 mps 677 mmHg 83%

    11 December, Wednesday

    Time Temperature Precipitation Wind Pressure Humidity
    00:00 -1°C° 0 mm 1 mps 676 mmHg 82%
    01:00 -2°C° 0 mm 2 mps 676 mmHg 81%
    02:00 -2°C° 0 mm 2 mps 675 mmHg 80%
    03:00 -1°C° 0 mm 2 mps 675 mmHg 79%
    04:00 -1°C° 0.1 mm 2 mps 675 mmHg 82%
    05:00 0°C° 0.1 mm 3 mps 674 mmHg 85%
    06:00 0°C° 0.1 mm 3 mps 674 mmHg 87%
    07:00 0°C° 0.9 mm 3 mps 674 mmHg 90%
    08:00 0°C° 0.9 mm 4 mps 674 mmHg 92%
    09:00 0°C° 0.9 mm 4 mps 674 mmHg 94%
    10:00 0°C° 1.7 mm 5 mps 674 mmHg 95%
    11:00 0°C° 1.7 mm 5 mps 674 mmHg 96%
    12:00 -1°C° 1.7 mm 6 mps 674 mmHg 97%
    13:00 0°C° 0.8 mm 5 mps 674 mmHg 95%
    14:00 -1°C° 0.8 mm 4 mps 674 mmHg 94%
    15:00 -2°C° 0.8 mm 4 mps 675 mmHg 92%
    16:00 -2°C° 0 mm 3 mps 674 mmHg 92%
    17:00 -2°C° 0 mm 3 mps 674 mmHg 91%
    18:00 -4°C° 0 mm 3 mps 673 mmHg 91%
    19:00 -4°C° 0 mm 3 mps 673 mmHg 89%
    20:00 -4°C° 0 mm 3 mps 673 mmHg 87%
    21:00 -4°C° 0 mm 4 mps 673 mmHg 85%
    22:00 -5°C° 0.7 mm 5 mps 673 mmHg 88%
    23:00 -4°C° 0.7 mm 6 mps 673 mmHg 91%
    Show more